Weather home | Your neighborhood | Marine | Radar | Hurricane | Almanac

Daily weather history


Statistical History for Saturday, May 20, 2017

St. Petersburg Airport, FL


  Actual Average Record
Temperature
Mean Temperature -  
Max Temperature 87 °F 94 °F (1960)
Min Temperature 71 °F 63 °F (1979)
Cooling Degree Days    
Growing Degree Days 32 (Base - )  
Moisture
Dew Point   
Average Humidity    
Maximum Humidity    
Minimum Humidity    
Precipitation
Precipitation - - ()
Wind
Wind Speed   
Max Wind Speed   
Max Gust Speed   
Visibility   
Events   
Averages and records for this station are not official NWS values.
Key: T is trace of precipitation, MM is missing value
Source: NWS Daily Summary
Seasonal Weather Averages
Time(EDT)TemperatureDew PointHumidity Sea Level Pressure Visibility Wind DirectionWind SpeedGust SpeedPrecipitationEventsConditions
12:53 AM 78.1 °F 73.9 °F 87% 30.02 in 10.0 miles East 8.1 mph - N/A   Clear
1:50 AM 78.8 °F 73.4 °F 83% 30.03 in 10.0 miles East 5.8 mph - N/A   Mostly Cloudy
1:53 AM 78.1 °F 73.0 °F 84% 30.04 in 10.0 miles East 4.6 mph - N/A   Mostly Cloudy
2:53 AM 77.0 °F 73.0 °F 88% 30.04 in 10.0 miles East 6.9 mph - N/A   Overcast
3:53 AM 77.0 °F 73.0 °F 88% 30.01 in 10.0 miles ESE 9.2 mph - N/A   Scattered Clouds
4:53 AM 77.0 °F 73.0 °F 88% 30.01 in 10.0 miles SE 10.4 mph - N/A   Partly Cloudy
5:53 AM 77.0 °F 73.0 °F 88% 30.01 in 10.0 miles SE 12.7 mph - N/A   Clear
6:53 AM 77.0 °F 73.0 °F 88% 30.03 in 9.0 miles ESE 11.5 mph - N/A   Partly Cloudy
7:32 AM 77.0 °F 73.0 °F 88% 30.04 in 9.0 miles ESE 8.1 mph - N/A   Mostly Cloudy
7:53 AM 78.1 °F 73.9 °F 87% 30.05 in 9.0 miles ESE 10.4 mph - N/A   Mostly Cloudy
8:53 AM 79.0 °F 73.0 °F 82% 30.06 in 10.0 miles SE 16.1 mph 24.2 mph N/A   Mostly Cloudy
9:53 AM 81.0 °F 73.0 °F 77% 30.06 in 10.0 miles SE 16.1 mph - N/A   Mostly Cloudy
10:00 AM 81.0 °F 73.0 °F 77% 30.06 in 10.0 miles SE 16.1 mph - N/A   Scattered Clouds
10:53 AM 84.9 °F 73.0 °F 67% 30.07 in 10.0 miles ESE 15.0 mph 21.9 mph N/A   Scattered Clouds
11:41 AM 86.0 °F 72.0 °F 63% 30.08 in 10.0 miles ESE 12.7 mph - N/A   Mostly Cloudy
11:48 AM 87.8 °F 71.6 °F 58% 30.07 in 10.0 miles ESE 12.7 mph - N/A   Scattered Clouds
11:53 AM 88.0 °F 71.1 °F 57% 30.08 in 10.0 miles ESE 12.7 mph - N/A   Scattered Clouds
12:53 PM 90.0 °F 69.1 °F 50% 30.07 in 10.0 miles ESE 12.7 mph - N/A   Partly Cloudy
1:53 PM 90.0 °F 69.1 °F 50% 30.05 in 10.0 miles Variable 6.9 mph 17.3 mph N/A   Scattered Clouds
2:53 PM 91.9 °F 70.0 °F 48% 30.02 in 10.0 miles NE 5.8 mph - N/A   Partly Cloudy
3:53 PM 91.9 °F 69.1 °F 47% 30.01 in 10.0 miles NNE 6.9 mph - N/A   Scattered Clouds
4:53 PM 91.0 °F 71.1 °F 52% 30.00 in 10.0 miles WSW 13.8 mph - N/A   Mostly Cloudy
5:53 PM 89.1 °F 70.0 °F 53% 30.00 in 10.0 miles West 11.5 mph - N/A   Partly Cloudy
6:53 PM 87.1 °F 70.0 °F 57% 30.01 in 10.0 miles SW 10.4 mph - N/A   Clear
7:53 PM 82.9 °F 72.0 °F 69% 30.02 in 10.0 miles SSW 11.5 mph - N/A   Clear
8:53 PM 80.1 °F 68.0 °F 67% 30.05 in 10.0 miles Calm Calm - N/A   Overcast
9:41 PM 78.1 °F 72.0 °F 81% 30.06 in 1.8 miles NNE 9.2 mph - 0.17 in Rain Heavy Rain
9:48 PM 77.0 °F 73.4 °F 89% 30.06 in 3.0 miles NNE 3.5 mph - 0.17 in Rain Light Rain
9:53 PM 77.0 °F 72.0 °F 84% 30.06 in 10.0 miles Calm Calm - 0.17 in Rain , Thunderstorm Light Rain
10:07 PM 77.0 °F 73.0 °F 88% 30.08 in 10.0 miles SE 9.2 mph - 0.00 in Thunderstorm Thunderstorm
10:45 PM 75.0 °F 71.1 °F 87% 30.10 in 10.0 miles South 9.2 mph - 0.00 in Rain , Thunderstorm Light Rain
10:53 PM 73.9 °F 70.0 °F 87% 30.09 in 10.0 miles South 9.2 mph - 0.00 in   Mostly Cloudy
11:53 PM 75.0 °F 70.0 °F 84% 30.10 in 10.0 miles South 8.1 mph - N/A   Scattered Clouds
ADVERTISEMENT
Enter city or zip code to search weather conditions:


  • 490 First Avenue South
  • St. Petersburg, FL 33701
  • 727-893-8111